sat.trackr.live / text

‹ back to catalog

MERIDIAN 8

NORAD 44453 · 2019-046A

PAYLOAD ACTIVE UNKNOWN

§ Identity

Operator
Country
CIS
Launch date
2019-07-30
Launch site
PLMSC
Launch vehicle
Mass (kg)
RCS (m²)

External: N2YO · Heavens-Above · Gunter

§ Orbital elements

Epoch: 2026-05-24T06:58:01.844832Z

Period
717.83 min
Inclination
63.1160°
Eccentricity
0.7069462
Mean motion
2.00604462 rev/d
Perigee alt
1,404.4 km
Apogee alt
38,952.8 km
Semi-major
26,556.7 km
B*
0.0000e+0
RAAN
53.8420°
Arg perigee
274.8017°
Mean anomaly
14.7796°
Rev number
4,986

§ Raw data

MERIDIAN 81 44453U 19046A   26144.29029913 -.00000011  00000+0  00000+0 0  99932 44453  63.1160  53.8420 7069462 274.8017  14.7796  2.00604462 49869

JSON: /api/v1/satellites/44453 · /tle

For live sub-satellite position, see the globe view (requires WebGL).

§ Visibility from observer

Set your observer location to see the next 7 days of passes ≥ 10°. The values pass through the URL so the page stays shareable.

No JS? Fill the form by hand. The geolocation button needs JavaScript.